Time,TemperatureF,DewpointF,PressureIn,WindDirection,WindDirectionDegrees,WindSpeedMPH,WindSpeedGustMPH,Humidity,HourlyPrecipIn,Conditions,Clouds,dailyrainin,SoftwareType,DateUTC
2013-02-16 00:00:00,25.5,24.0,30.11,NE,46,2.0,3.0,94,0.00,,,0.01,Wunderground v.1.15,2013-02-16 05:00:00,
2013-02-16 00:02:00,25.5,23.8,30.10,NE,41,2.0,3.0,93,0.00,,,0.01,Wunderground v.1.15,2013-02-16 05:02:00,
2013-02-16 00:08:00,25.4,23.7,30.10,NE,43,2.0,3.0,93,0.00,,,0.00,Wunderground v.1.15,2013-02-16 05:08:00,
2013-02-16 00:10:00,25.3,23.6,30.10,NE,38,3.0,3.0,93,0.00,,,0.00,Wunderground v.1.15,2013-02-16 05:10:00,
2013-02-16 00:16:00,25.2,23.5,30.10,NNE,24,3.0,6.0,93,0.00,,,0.00,Wunderground v.1.15,2013-02-16 05:16:00,
2013-02-16 00:22:00,25.2,23.5,30.10,NE,41,3.0,3.0,93,0.00,,,0.00,Wunderground v.1.15,2013-02-16 05:22:00,
2013-02-16 00:26:00,25.1,23.4,30.10,NE,36,3.0,3.0,93,0.00,,,0.00,Wunderground v.1.15,2013-02-16 05:26:00,
2013-02-16 00:32:00,25.1,23.4,30.10,NE,38,3.0,3.0,93,0.00,,,0.00,Wunderground v.1.15,2013-02-16 05:32:00,
2013-02-16 00:38:00,25.1,23.4,30.10,NE,50,1.0,3.0,93,0.00,,,0.00,Wunderground v.1.15,2013-02-16 05:38:00,
2013-02-16 00:44:00,25.1,23.4,30.10,NE,56,1.0,3.0,93,0.00,,,0.00,Wunderground v.1.15,2013-02-16 05:44:00,
2013-02-16 00:50:00,25.1,23.4,30.09,NE,44,1.0,1.0,93,0.00,,,0.00,Wunderground v.1.15,2013-02-16 05:50:00,
2013-02-16 00:56:00,25.2,23.5,30.09,NNE,29,1.0,1.0,93,0.00,,,0.00,Wunderground v.1.15,2013-02-16 05:56:00,
2013-02-16 01:02:00,25.2,23.5,30.09,NNE,25,1.0,3.0,93,0.00,,,0.00,Wunderground v.1.15,2013-02-16 06:02:00,
2013-02-16 01:08:00,25.1,23.4,30.09,NNE,33,2.0,3.0,93,0.00,,,0.00,Wunderground v.1.15,2013-02-16 06:08:00,
2013-02-16 01:14:00,25.0,23.3,30.09,NE,41,2.0,2.0,93,0.00,,,0.00,Wunderground v.1.15,2013-02-16 06:14:00,
2013-02-16 01:20:00,24.9,22.9,30.09,NE,52,2.0,3.0,92,0.00,,,0.00,Wunderground v.1.15,2013-02-16 06:20:00,
2013-02-16 01:26:00,24.7,22.7,30.08,NE,46,2.0,3.0,92,0.00,,,0.00,Wunderground v.1.15,2013-02-16 06:26:00,
2013-02-16 01:32:00,24.6,22.6,30.09,NNE,27,2.0,2.0,92,0.00,,,0.00,Wunderground v.1.15,2013-02-16 06:32:00,
2013-02-16 01:38:00,24.6,22.6,30.08,North,9,2.0,2.0,92,0.00,,,0.00,Wunderground v.1.15,2013-02-16 06:38:00,
2013-02-16 01:44:00,24.6,22.6,30.08,NE,38,2.0,2.0,92,0.00,,,0.00,Wunderground v.1.15,2013-02-16 06:44:00,
2013-02-16 01:50:00,24.6,22.3,30.08,NE,50,1.0,1.0,91,0.00,,,0.00,Wunderground v.1.15,2013-02-16 06:50:00,
2013-02-16 01:56:00,24.6,22.3,30.08,NE,41,1.0,2.0,91,0.00,,,0.00,Wunderground v.1.15,2013-02-16 06:56:00,
2013-02-16 02:02:00,24.6,22.3,30.08,NNE,23,1.0,1.0,91,0.00,,,0.00,Wunderground v.1.15,2013-02-16 07:02:00,
2013-02-16 02:08:00,24.5,22.2,30.08,NNE,29,1.0,4.0,91,0.00,,,0.00,Wunderground v.1.15,2013-02-16 07:08:00,
2013-02-16 02:14:00,24.6,22.3,30.07,NE,34,1.0,2.0,91,0.00,,,0.00,Wunderground v.1.15,2013-02-16 07:14:00,
2013-02-16 02:20:00,24.6,22.3,30.07,NE,47,1.0,1.0,91,0.00,,,0.00,Wunderground v.1.15,2013-02-16 07:20:00,
2013-02-16 02:26:00,24.4,22.4,30.07,ENE,57,1.0,1.0,92,0.00,,,0.00,Wunderground v.1.15,2013-02-16 07:26:00,
2013-02-16 02:32:00,24.3,22.1,30.06,NE,46,1.0,1.0,91,0.00,,,0.00,Wunderground v.1.15,2013-02-16 07:32:00,
2013-02-16 02:38:00,24.2,22.0,30.07,NNE,23,1.0,1.0,91,0.00,,,0.00,Wunderground v.1.15,2013-02-16 07:38:00,
2013-02-16 02:44:00,24.1,21.9,30.06,NE,38,1.0,2.0,91,0.00,,,0.00,Wunderground v.1.15,2013-02-16 07:44:00,
2013-02-16 02:50:00,24.0,21.8,30.06,NE,41,1.0,1.0,91,0.00,,,0.00,Wunderground v.1.15,2013-02-16 07:50:00,
2013-02-16 02:56:00,23.9,21.4,30.06,North,8,1.0,2.0,90,0.00,,,0.00,Wunderground v.1.15,2013-02-16 07:56:00,
2013-02-16 03:02:00,23.9,21.4,30.05,NE,56,1.0,3.0,90,0.00,,,0.00,Wunderground v.1.15,2013-02-16 08:02:00,
2013-02-16 03:08:00,23.8,21.6,30.05,NNE,24,1.0,3.0,91,0.00,,,0.00,Wunderground v.1.15,2013-02-16 08:08:00,
2013-02-16 03:14:00,23.8,21.6,30.05,NNE,27,1.0,2.0,91,0.00,,,0.00,Wunderground v.1.15,2013-02-16 08:14:00,
2013-02-16 03:20:00,23.8,21.8,30.05,East,91,1.0,1.0,92,0.00,,,0.00,Wunderground v.1.15,2013-02-16 08:20:00,
2013-02-16 03:26:00,23.7,21.7,30.04,North,9,0.0,2.0,92,0.00,,,0.00,Wunderground v.1.15,2013-02-16 08:26:00,
2013-02-16 03:32:00,23.7,21.7,30.04,NNE,18,1.0,2.0,92,0.00,,,0.00,Wunderground v.1.15,2013-02-16 08:32:00,
2013-02-16 03:38:00,23.7,22.0,30.04,NE,47,0.0,2.0,93,0.00,,,0.00,Wunderground v.1.15,2013-02-16 08:38:00,
2013-02-16 03:44:00,23.6,21.9,30.04,NNE,33,0.0,1.0,93,0.00,,,0.00,Wunderground v.1.15,2013-02-16 08:44:00,
2013-02-16 03:50:00,23.6,21.9,30.04,NE,53,0.0,1.0,93,0.00,,,0.00,Wunderground v.1.15,2013-02-16 08:50:00,
2013-02-16 03:56:00,23.6,21.9,30.04,NE,39,0.0,1.0,93,0.00,,,0.00,Wunderground v.1.15,2013-02-16 08:56:00,
2013-02-16 04:02:00,23.7,22.0,30.04,NE,40,1.0,1.0,93,0.00,,,0.00,Wunderground v.1.15,2013-02-16 09:02:00,
2013-02-16 04:08:00,23.8,22.1,30.03,ENE,74,0.0,1.0,93,0.00,,,0.00,Wunderground v.1.15,2013-02-16 09:08:00,
2013-02-16 04:14:00,23.8,22.1,30.03,NE,51,1.0,1.0,93,0.00,,,0.00,Wunderground v.1.15,2013-02-16 09:14:00,
2013-02-16 04:20:00,23.9,22.2,30.03,NE,37,1.0,2.0,93,0.00,,,0.00,Wunderground v.1.15,2013-02-16 09:20:00,
2013-02-16 04:26:00,23.9,22.2,30.03,NE,47,1.0,3.0,93,0.00,,,0.00,Wunderground v.1.15,2013-02-16 09:26:00,
2013-02-16 04:32:00,23.9,21.9,30.03,NE,54,1.0,2.0,92,0.00,,,0.00,Wunderground v.1.15,2013-02-16 09:32:00,
2013-02-16 04:38:00,24.0,22.0,30.03,NNE,13,1.0,2.0,92,0.00,,,0.00,Wunderground v.1.15,2013-02-16 09:38:00,
2013-02-16 04:44:00,24.0,22.0,30.03,NNE,33,1.0,1.0,92,0.00,,,0.00,Wunderground v.1.15,2013-02-16 09:44:00,
2013-02-16 04:50:00,24.0,22.0,30.03,NE,55,0.0,1.0,92,0.00,,,0.00,Wunderground v.1.15,2013-02-16 09:50:00,
2013-02-16 04:56:00,23.9,21.9,30.02,NE,56,0.0,1.0,92,0.00,,,0.00,Wunderground v.1.15,2013-02-16 09:56:00,
2013-02-16 05:02:00,23.9,21.7,30.03,NNW,346,0.0,1.0,91,0.00,,,0.00,Wunderground v.1.15,2013-02-16 10:02:00,
2013-02-16 05:08:00,23.9,21.7,30.03,NNW,346,0.0,1.0,91,0.00,,,0.00,Wunderground v.1.15,2013-02-16 10:08:00,
2013-02-16 05:14:00,23.9,21.7,30.02,NE,41,0.0,1.0,91,0.00,,,0.00,Wunderground v.1.15,2013-02-16 10:14:00,
2013-02-16 05:20:00,24.0,21.8,30.02,NE,41,0.0,1.0,91,0.00,,,0.00,Wunderground v.1.15,2013-02-16 10:20:00,
2013-02-16 05:26:00,24.0,21.8,30.03,ENE,59,0.0,1.0,91,0.00,,,0.00,Wunderground v.1.15,2013-02-16 10:26:00,
2013-02-16 05:32:00,23.9,21.7,30.03,ENE,64,0.0,1.0,91,0.00,,,0.00,Wunderground v.1.15,2013-02-16 10:32:00,
2013-02-16 05:38:00,23.9,21.7,30.03,ENE,64,0.0,1.0,91,0.00,,,0.00,Wunderground v.1.15,2013-02-16 10:38:00,
2013-02-16 05:44:00,23.9,21.7,30.03,NE,47,0.0,1.0,91,0.00,,,0.00,Wunderground v.1.15,2013-02-16 10:44:00,
2013-02-16 05:50:00,23.9,21.7,30.03,NE,48,0.0,1.0,91,0.00,,,0.00,Wunderground v.1.15,2013-02-16 10:50:00,
2013-02-16 05:56:00,23.9,21.7,30.03,NE,51,0.0,1.0,91,0.00,,,0.00,Wunderground v.1.15,2013-02-16 10:56:00,
2013-02-16 06:02:00,23.9,21.7,30.03,NE,51,0.0,1.0,91,0.00,,,0.00,Wunderground v.1.15,2013-02-16 11:02:00,
2013-02-16 06:08:00,23.9,21.9,30.03,NE,51,0.0,1.0,92,0.00,,,0.00,Wunderground v.1.15,2013-02-16 11:08:00,
2013-02-16 06:14:00,23.8,21.8,30.02,NE,51,0.0,1.0,92,0.00,,,0.00,Wunderground v.1.15,2013-02-16 11:14:00,
2013-02-16 06:20:00,23.8,21.8,30.02,ENE,58,0.0,1.0,92,0.00,,,0.00,Wunderground v.1.15,2013-02-16 11:20:00,
2013-02-16 06:26:00,23.7,21.7,30.02,ENE,58,0.0,1.0,92,0.00,,,0.00,Wunderground v.1.15,2013-02-16 11:26:00,
2013-02-16 06:32:00,23.7,21.7,30.03,NNE,19,0.0,2.0,92,0.00,,,0.00,Wunderground v.1.15,2013-02-16 11:32:00,
2013-02-16 06:38:00,23.6,21.6,30.03,NNE,20,0.0,2.0,92,0.00,,,0.00,Wunderground v.1.15,2013-02-16 11:38:00,
2013-02-16 06:44:00,23.6,21.9,30.02,NNE,23,0.0,1.0,93,0.00,,,0.00,Wunderground v.1.15,2013-02-16 11:44:00,
2013-02-16 06:50:00,23.5,21.8,30.02,NE,36,0.0,1.0,93,0.00,,,0.00,Wunderground v.1.15,2013-02-16 11:50:00,
2013-02-16 06:56:00,23.4,21.7,30.02,NE,36,0.0,1.0,93,0.00,,,0.00,Wunderground v.1.15,2013-02-16 11:56:00,
2013-02-16 07:02:00,23.4,21.7,30.02,NE,36,0.0,1.0,93,0.00,,,0.00,Wunderground v.1.15,2013-02-16 12:02:00,
2013-02-16 07:08:00,23.3,21.8,30.02,NNE,16,0.0,1.0,94,0.00,,,0.00,Wunderground v.1.15,2013-02-16 12:08:00,
2013-02-16 07:14:00,23.2,21.7,30.01,NNE,33,0.0,1.0,94,0.00,,,0.00,Wunderground v.1.15,2013-02-16 12:14:00,
2013-02-16 07:20:00,23.3,21.8,30.01,NNE,23,1.0,1.0,94,0.00,,,0.00,Wunderground v.1.15,2013-02-16 12:20:00,
2013-02-16 07:26:00,23.3,22.1,30.01,NE,44,1.0,1.0,95,0.00,,,0.00,Wunderground v.1.15,2013-02-16 12:26:00,
2013-02-16 07:32:00,23.2,22.0,30.01,NE,46,0.0,1.0,95,0.00,,,0.00,Wunderground v.1.15,2013-02-16 12:32:00,
2013-02-16 07:38:00,23.2,22.0,30.01,NNE,22,1.0,1.0,95,0.00,,,0.00,Wunderground v.1.15,2013-02-16 12:38:00,
2013-02-16 07:44:00,23.2,22.0,30.01,NE,46,1.0,1.0,95,0.00,,,0.00,Wunderground v.1.15,2013-02-16 12:44:00,
2013-02-16 07:50:00,23.2,22.0,30.01,NE,49,1.0,2.0,95,0.00,,,0.00,Wunderground v.1.15,2013-02-16 12:50:00,
2013-02-16 07:56:00,23.1,21.9,30.02,NE,38,1.0,2.0,95,0.00,,,0.00,Wunderground v.1.15,2013-02-16 12:56:00,
2013-02-16 08:02:00,23.0,21.8,30.01,ENE,62,1.0,1.0,95,0.00,,,0.00,Wunderground v.1.15,2013-02-16 13:02:00,
2013-02-16 08:08:00,23.1,21.9,30.01,NNW,333,1.0,3.0,95,0.00,,,0.00,Wunderground v.1.15,2013-02-16 13:08:00,
2013-02-16 08:14:00,23.0,21.8,30.02,NE,41,1.0,1.0,95,0.00,,,0.00,Wunderground v.1.15,2013-02-16 13:14:00,
2013-02-16 08:20:00,23.0,21.8,30.02,ENE,61,1.0,1.0,95,0.00,,,0.00,Wunderground v.1.15,2013-02-16 13:20:00,
2013-02-16 08:26:00,23.1,21.9,30.02,NE,39,1.0,2.0,95,0.00,,,0.00,Wunderground v.1.15,2013-02-16 13:26:00,
2013-02-16 08:32:00,22.8,21.3,30.02,NNE,25,2.0,2.0,94,0.00,,,0.00,Wunderground v.1.15,2013-02-16 13:32:00,
2013-02-16 08:38:00,22.6,21.1,30.02,NE,34,2.0,2.0,94,0.00,,,0.00,Wunderground v.1.15,2013-02-16 13:38:00,
2013-02-16 08:44:00,22.5,21.0,30.02,NE,48,2.0,2.0,94,0.00,,,0.00,Wunderground v.1.15,2013-02-16 13:44:00,
2013-02-16 08:50:00,22.6,21.1,30.02,NNE,22,1.0,1.0,94,0.00,,,0.00,Wunderground v.1.15,2013-02-16 13:50:00,
2013-02-16 08:56:00,22.6,21.1,30.02,NE,36,2.0,2.0,94,0.00,,,0.00,Wunderground v.1.15,2013-02-16 13:56:00,
2013-02-16 09:02:00,22.7,21.2,30.02,NE,40,2.0,2.0,94,0.00,,,0.00,Wunderground v.1.15,2013-02-16 14:02:00,
2013-02-16 09:08:00,22.7,21.2,30.02,NNE,25,2.0,3.0,94,0.00,,,0.00,Wunderground v.1.15,2013-02-16 14:08:00,
2013-02-16 09:14:00,22.8,21.1,30.02,NE,44,2.0,2.0,93,0.00,,,0.00,Wunderground v.1.15,2013-02-16 14:14:00,
2013-02-16 09:20:00,22.6,20.6,30.02,NE,39,2.0,2.0,92,0.00,,,0.00,Wunderground v.1.15,2013-02-16 14:20:00,
2013-02-16 09:26:00,22.8,20.8,30.01,NE,51,2.0,2.0,92,0.00,,,0.00,Wunderground v.1.15,2013-02-16 14:26:00,
2013-02-16 09:32:00,23.1,20.9,30.02,NE,50,2.0,3.0,91,0.00,,,0.00,Wunderground v.1.15,2013-02-16 14:32:00,
2013-02-16 09:38:00,23.1,20.9,30.02,NE,44,2.0,3.0,91,0.00,,,0.00,Wunderground v.1.15,2013-02-16 14:38:00,
2013-02-16 09:44:00,22.9,20.7,30.02,NE,50,2.0,2.0,91,0.00,,,0.00,Wunderground v.1.15,2013-02-16 14:44:00,
2013-02-16 09:50:00,22.8,20.8,30.02,NNE,27,2.0,2.0,92,0.00,,,0.00,Wunderground v.1.15,2013-02-16 14:50:00,
2013-02-16 09:56:00,22.7,20.7,30.01,NE,41,2.0,2.0,92,0.00,,,0.00,Wunderground v.1.15,2013-02-16 14:56:00,
2013-02-16 10:02:00,22.8,21.1,30.01,ENE,58,2.0,2.0,93,0.00,,,0.00,Wunderground v.1.15,2013-02-16 15:02:00,
2013-02-16 10:08:00,22.6,20.9,30.01,NE,41,2.0,4.0,93,0.00,,,0.00,Wunderground v.1.15,2013-02-16 15:08:00,
2013-02-16 10:14:00,22.3,20.6,30.01,NNW,344,2.0,3.0,93,0.00,,,0.00,Wunderground v.1.15,2013-02-16 15:14:00,
2013-02-16 10:20:00,22.3,20.6,30.01,NE,52,2.0,2.0,93,0.00,,,0.00,Wunderground v.1.15,2013-02-16 15:20:00,
2013-02-16 10:26:00,22.4,20.9,30.01,NE,44,2.0,2.0,94,0.00,,,0.00,Wunderground v.1.15,2013-02-16 15:26:00,
2013-02-16 10:32:00,22.5,21.0,30.01,NNE,26,2.0,3.0,94,0.00,,,0.00,Wunderground v.1.15,2013-02-16 15:32:00,
2013-02-16 10:38:00,22.5,21.0,30.01,NE,41,2.0,3.0,94,0.00,,,0.00,Wunderground v.1.15,2013-02-16 15:38:00,
2013-02-16 10:44:00,22.5,21.0,30.01,NNE,22,2.0,2.0,94,0.00,,,0.00,Wunderground v.1.15,2013-02-16 15:44:00,
2013-02-16 10:50:00,22.6,21.1,30.01,NE,47,3.0,3.0,94,0.00,,,0.00,Wunderground v.1.15,2013-02-16 15:50:00,
2013-02-16 10:56:00,22.7,21.2,30.01,WNW,301,2.0,4.0,94,0.00,,,0.00,Wunderground v.1.15,2013-02-16 15:56:00,
2013-02-16 11:02:00,22.7,21.2,30.01,NE,36,2.0,3.0,94,0.00,,,0.00,Wunderground v.1.15,2013-02-16 16:02:00,
2013-02-16 11:08:00,22.5,20.8,30.01,NNE,22,2.0,3.0,93,0.00,,,0.00,Wunderground v.1.15,2013-02-16 16:08:00,
2013-02-16 11:14:00,22.5,20.8,30.01,NE,56,3.0,3.0,93,0.00,,,0.00,Wunderground v.1.15,2013-02-16 16:14:00,
2013-02-16 11:20:00,22.7,21.0,30.01,NE,43,2.0,2.0,93,0.00,,,0.00,Wunderground v.1.15,2013-02-16 16:20:00,
2013-02-16 11:26:00,22.6,20.6,30.02,NE,43,2.0,2.0,92,0.00,,,0.00,Wunderground v.1.15,2013-02-16 16:26:00,
2013-02-16 11:32:00,22.5,20.5,30.01,North,355,2.0,2.0,92,0.00,,,0.00,Wunderground v.1.15,2013-02-16 16:32:00,
2013-02-16 11:38:00,22.5,20.5,30.01,North,354,3.0,6.0,92,0.00,,,0.00,Wunderground v.1.15,2013-02-16 16:38:00,
2013-02-16 11:44:00,22.5,20.5,30.01,NE,56,3.0,3.0,92,0.00,,,0.00,Wunderground v.1.15,2013-02-16 16:44:00,
2013-02-16 11:50:00,22.5,20.5,30.01,NNE,25,2.0,3.0,92,0.00,,,0.00,Wunderground v.1.15,2013-02-16 16:50:00,
2013-02-16 11:56:00,22.7,20.7,30.01,NE,53,3.0,4.0,92,0.00,,,0.00,Wunderground v.1.15,2013-02-16 16:56:00,
2013-02-16 12:02:00,23.0,20.8,30.01,NE,46,2.0,4.0,91,0.00,,,0.00,Wunderground v.1.15,2013-02-16 17:02:00,
2013-02-16 12:08:00,23.2,21.0,30.01,NNW,348,2.0,5.0,91,0.00,,,0.00,Wunderground v.1.15,2013-02-16 17:08:00,
2013-02-16 12:14:00,23.2,20.2,30.01,NE,46,3.0,5.0,88,0.00,,,0.00,Wunderground v.1.15,2013-02-16 17:14:00,
2013-02-16 12:20:00,23.4,20.4,30.01,NNE,32,2.0,2.0,88,0.00,,,0.00,Wunderground v.1.15,2013-02-16 17:20:00,
2013-02-16 12:26:00,23.6,20.3,30.01,NE,37,2.0,2.0,87,0.00,,,0.00,Wunderground v.1.15,2013-02-16 17:26:00,
2013-02-16 12:32:00,23.4,19.8,30.01,NNE,31,2.0,5.0,86,0.00,,,0.00,Wunderground v.1.15,2013-02-16 17:32:00,
2013-02-16 12:38:00,23.4,19.8,30.01,NE,51,2.0,5.0,86,0.00,,,0.00,Wunderground v.1.15,2013-02-16 17:38:00,
2013-02-16 12:44:00,23.6,19.5,30.01,NE,46,2.0,3.0,84,0.00,,,0.00,Wunderground v.1.15,2013-02-16 17:44:00,
2013-02-16 12:50:00,23.6,19.5,30.01,NNE,33,3.0,7.0,84,0.00,,,0.00,Wunderground v.1.15,2013-02-16 17:50:00,
2013-02-16 12:56:00,23.7,19.6,30.00,NNE,32,3.0,7.0,84,0.00,,,0.00,Wunderground v.1.15,2013-02-16 17:56:00,
2013-02-16 13:02:00,23.5,19.4,30.00,NE,46,3.0,3.0,84,0.00,,,0.00,Wunderground v.1.15,2013-02-16 18:02:00,
2013-02-16 13:08:00,23.8,19.1,30.00,NE,44,2.0,3.0,82,0.00,,,0.00,Wunderground v.1.15,2013-02-16 18:08:00,
2013-02-16 13:14:00,23.2,18.2,30.00,NE,44,2.0,7.0,81,0.00,,,0.00,Wunderground v.1.15,2013-02-16 18:14:00,
2013-02-16 13:20:00,22.9,18.2,30.01,ENE,68,3.0,3.0,82,0.00,,,0.00,Wunderground v.1.15,2013-02-16 18:20:00,
2013-02-16 13:26:00,23.1,18.1,30.01,North,4,2.0,3.0,81,0.00,,,0.00,Wunderground v.1.15,2013-02-16 18:26:00,
2013-02-16 13:32:00,23.3,17.7,30.01,NE,44,3.0,8.0,79,0.00,,,0.00,Wunderground v.1.15,2013-02-16 18:32:00,
2013-02-16 13:38:00,23.8,18.5,30.00,NNE,24,2.0,8.0,80,0.00,,,0.00,Wunderground v.1.15,2013-02-16 18:38:00,
2013-02-16 13:44:00,24.6,19.0,30.00,NE,36,2.0,3.0,79,0.00,,,0.00,Wunderground v.1.15,2013-02-16 18:44:00,
2013-02-16 13:50:00,24.9,18.4,30.00,NNE,30,3.0,3.0,76,0.00,,,0.00,Wunderground v.1.15,2013-02-16 18:50:00,
2013-02-16 13:56:00,24.9,18.4,30.00,East,81,3.0,3.0,76,0.00,,,0.00,Wunderground v.1.15,2013-02-16 18:56:00,
2013-02-16 14:02:00,24.8,18.3,30.00,NE,44,2.0,2.0,76,0.00,,,0.00,Wunderground v.1.15,2013-02-16 19:02:00,
2013-02-16 14:08:00,24.4,18.2,30.00,NNE,33,3.0,7.0,77,0.00,,,0.00,Wunderground v.1.15,2013-02-16 19:08:00,
2013-02-16 14:14:00,24.3,17.5,30.00,East,90,4.0,7.0,75,0.00,,,0.00,Wunderground v.1.15,2013-02-16 19:14:00,
2013-02-16 14:20:00,24.6,18.4,30.00,NE,40,3.0,4.0,77,0.00,,,0.00,Wunderground v.1.15,2013-02-16 19:20:00,
2013-02-16 14:26:00,24.2,17.4,30.00,NNE,23,2.0,4.0,75,0.00,,,0.00,Wunderground v.1.15,2013-02-16 19:26:00,
2013-02-16 14:32:00,23.6,18.0,30.00,NE,44,2.0,4.0,79,0.00,,,0.00,Wunderground v.1.15,2013-02-16 19:32:00,
2013-02-16 14:38:00,22.6,18.8,30.00,NE,47,3.0,4.0,85,0.00,,,0.00,Wunderground v.1.15,2013-02-16 19:38:00,
2013-02-16 14:44:00,21.1,17.6,30.01,NNE,15,2.0,3.0,86,0.00,,,0.00,Wunderground v.1.15,2013-02-16 19:44:00,
2013-02-16 14:50:00,20.6,17.3,30.00,North,8,2.0,2.0,87,0.00,,,0.00,Wunderground v.1.15,2013-02-16 19:50:00,
2013-02-16 14:56:00,21.4,18.4,30.01,NNE,18,2.0,2.0,88,0.00,,,0.00,Wunderground v.1.15,2013-02-16 19:56:00,
2013-02-16 15:02:00,21.7,18.2,30.01,NW,314,2.0,2.0,86,0.00,,,0.00,Wunderground v.1.15,2013-02-16 20:02:00,
2013-02-16 15:08:00,21.4,17.6,30.01,NE,38,3.0,10.0,85,0.00,,,0.00,Wunderground v.1.15,2013-02-16 20:08:00,
2013-02-16 15:14:00,21.2,16.8,30.02,NNE,27,3.0,3.0,83,0.00,,,0.00,Wunderground v.1.15,2013-02-16 20:14:00,
2013-02-16 15:20:00,20.8,16.7,30.02,NNE,12,3.0,6.0,84,0.00,,,0.00,Wunderground v.1.15,2013-02-16 20:20:00,
2013-02-16 15:26:00,20.6,16.5,30.02,East,82,2.0,6.0,84,0.00,,,0.00,Wunderground v.1.15,2013-02-16 20:26:00,
2013-02-16 15:32:00,20.4,15.5,30.02,ESE,111,2.0,5.0,81,0.00,,,0.00,Wunderground v.1.15,2013-02-16 20:32:00,
2013-02-16 15:38:00,20.7,15.8,30.02,ESE,107,2.0,5.0,81,0.00,,,0.00,Wunderground v.1.15,2013-02-16 20:38:00,
2013-02-16 15:44:00,20.6,15.1,30.03,ESE,119,2.0,3.0,79,0.00,,,0.00,Wunderground v.1.15,2013-02-16 20:44:00,
2013-02-16 15:50:00,20.6,14.5,30.03,NE,44,3.0,3.0,77,0.00,,,0.00,Wunderground v.1.15,2013-02-16 20:50:00,
2013-02-16 15:56:00,20.5,14.4,30.03,NNE,30,3.0,3.0,77,0.00,,,0.00,Wunderground v.1.15,2013-02-16 20:56:00,
2013-02-16 16:02:00,19.8,14.9,30.03,North,9,3.0,3.0,81,0.00,,,0.00,Wunderground v.1.15,2013-02-16 21:02:00,
2013-02-16 16:08:00,19.8,14.9,30.03,North,4,3.0,3.0,81,0.00,,,0.00,Wunderground v.1.15,2013-02-16 21:08:00,
2013-02-16 16:14:00,19.6,15.0,30.04,NE,53,3.0,5.0,82,0.00,,,0.00,Wunderground v.1.15,2013-02-16 21:14:00,
2013-02-16 16:20:00,19.5,14.6,30.05,NE,37,2.0,2.0,81,0.00,,,0.00,Wunderground v.1.15,2013-02-16 21:20:00,
2013-02-16 16:26:00,19.6,14.7,30.05,NNE,30,1.0,4.0,81,0.00,,,0.00,Wunderground v.1.15,2013-02-16 21:26:00,
2013-02-16 16:32:00,19.1,15.3,30.05,North,4,1.0,3.0,85,0.00,,,0.00,Wunderground v.1.15,2013-02-16 21:32:00,
2013-02-16 16:38:00,18.5,15.5,30.06,NNE,32,2.0,5.0,88,0.00,,,0.00,Wunderground v.1.15,2013-02-16 21:38:00,
2013-02-16 16:44:00,18.4,15.4,30.06,NW,326,2.0,3.0,88,0.00,,,0.00,Wunderground v.1.15,2013-02-16 21:44:00,
2013-02-16 16:50:00,18.6,14.8,30.06,NNE,20,1.0,2.0,85,0.00,,,0.00,Wunderground v.1.15,2013-02-16 21:50:00,
2013-02-16 16:56:00,18.7,13.8,30.06,NE,37,2.0,3.0,81,0.00,,,0.00,Wunderground v.1.15,2013-02-16 21:56:00,
2013-02-16 17:02:00,18.9,13.2,30.06,ENE,61,2.0,4.0,78,0.00,,,0.00,Wunderground v.1.15,2013-02-16 22:02:00,
2013-02-16 17:08:00,18.9,12.3,30.06,NNE,33,2.0,4.0,75,0.00,,,0.00,Wunderground v.1.15,2013-02-16 22:08:00,
2013-02-16 17:14:00,18.8,11.9,30.06,NNE,29,2.0,3.0,74,0.00,,,0.00,Wunderground v.1.15,2013-02-16 22:14:00,
2013-02-16 17:20:00,18.8,11.6,30.06,NNW,332,2.0,2.0,73,0.00,,,0.00,Wunderground v.1.15,2013-02-16 22:20:00,
2013-02-16 17:26:00,18.5,11.6,30.06,NNE,25,2.0,2.0,74,0.00,,,0.00,Wunderground v.1.15,2013-02-16 22:26:00,
2013-02-16 17:32:00,18.3,11.7,30.07,NNE,19,2.0,5.0,75,0.00,,,0.00,Wunderground v.1.15,2013-02-16 22:32:00,
2013-02-16 17:38:00,18.0,12.9,30.07,NE,39,2.0,5.0,80,0.00,,,0.00,Wunderground v.1.15,2013-02-16 22:38:00,
2013-02-16 17:44:00,17.2,12.9,30.07,NE,44,2.0,3.0,83,0.00,,,0.00,Wunderground v.1.15,2013-02-16 22:44:00,
2013-02-16 17:50:00,16.9,12.6,30.07,NNE,26,3.0,3.0,83,0.00,,,0.00,Wunderground v.1.15,2013-02-16 22:50:00,
2013-02-16 17:56:00,16.8,12.0,30.08,NW,320,1.0,5.0,81,0.00,,,0.00,Wunderground v.1.15,2013-02-16 22:56:00,
2013-02-16 18:02:00,16.9,13.2,30.07,ENE,66,2.0,2.0,85,0.00,,,0.00,Wunderground v.1.15,2013-02-16 23:02:00,
2013-02-16 18:08:00,16.6,13.4,30.08,NE,44,2.0,9.0,87,0.00,,,0.00,Wunderground v.1.15,2013-02-16 23:08:00,
2013-02-16 18:14:00,16.3,13.1,30.08,NE,38,2.0,4.0,87,0.00,,,0.00,Wunderground v.1.15,2013-02-16 23:14:00,
2013-02-16 18:20:00,16.4,12.9,30.08,NNE,27,2.0,2.0,86,0.00,,,0.00,Wunderground v.1.15,2013-02-16 23:20:00,
2013-02-16 18:26:00,16.4,12.1,30.08,North,5,1.0,3.0,83,0.00,,,0.00,Wunderground v.1.15,2013-02-16 23:26:00,
2013-02-16 18:32:00,16.5,12.8,30.09,NNE,19,3.0,7.0,85,0.00,,,0.00,Wunderground v.1.15,2013-02-16 23:32:00,
2013-02-16 18:38:00,16.3,13.1,30.09,NE,48,4.0,12.0,87,0.00,,,0.00,Wunderground v.1.15,2013-02-16 23:38:00,
2013-02-16 18:44:00,16.1,13.4,30.09,NE,47,3.0,6.0,89,0.00,,,0.00,Wunderground v.1.15,2013-02-16 23:44:00,
2013-02-16 18:50:00,15.9,13.0,30.09,SW,236,2.0,2.0,88,0.00,,,0.00,Wunderground v.1.15,2013-02-16 23:50:00,
2013-02-16 18:56:00,15.8,12.6,30.10,NNE,15,3.0,3.0,87,0.00,,,0.00,Wunderground v.1.15,2013-02-16 23:56:00,
2013-02-16 19:02:00,15.8,11.8,30.10,NW,321,3.0,3.0,84,0.00,,,0.00,Wunderground v.1.15,2013-02-17 00:02:00,
2013-02-16 19:08:00,15.8,11.6,30.10,North,354,3.0,3.0,83,0.00,,,0.00,Wunderground v.1.15,2013-02-17 00:08:00,
2013-02-16 19:14:00,15.8,11.6,30.11,East,91,3.0,4.0,83,0.00,,,0.00,Wunderground v.1.15,2013-02-17 00:14:00,
2013-02-16 19:20:00,15.7,11.5,30.11,NNE,30,2.0,2.0,83,0.00,,,0.00,Wunderground v.1.15,2013-02-17 00:20:00,
2013-02-16 19:26:00,15.8,11.8,30.11,NW,321,2.0,2.0,84,0.00,,,0.00,Wunderground v.1.15,2013-02-17 00:26:00,
2013-02-16 19:32:00,15.8,11.6,30.11,NE,56,2.0,4.0,83,0.00,,,0.00,Wunderground v.1.15,2013-02-17 00:32:00,
2013-02-16 19:38:00,15.8,11.8,30.11,NNE,30,2.0,4.0,84,0.00,,,0.00,Wunderground v.1.15,2013-02-17 00:38:00,
2013-02-16 19:44:00,15.9,12.2,30.11,ENE,61,2.0,2.0,85,0.00,,,0.00,Wunderground v.1.15,2013-02-17 00:44:00,
2013-02-16 19:50:00,15.7,12.5,30.11,NNE,29,1.0,1.0,87,0.00,,,0.00,Wunderground v.1.15,2013-02-17 00:50:00,
2013-02-16 19:56:00,15.5,13.1,30.11,ENE,61,1.0,1.0,90,0.00,,,0.00,Wunderground v.1.15,2013-02-17 00:56:00,
2013-02-16 20:02:00,15.3,13.1,30.11,NNE,20,1.0,1.0,91,0.00,,,0.00,Wunderground v.1.15,2013-02-17 01:02:00,
2013-02-16 20:08:00,15.2,13.0,30.12,NNE,13,1.0,2.0,91,0.00,,,0.00,Wunderground v.1.15,2013-02-17 01:08:00,
2013-02-16 20:14:00,15.2,13.0,30.12,NNE,18,1.0,2.0,91,0.00,,,0.00,Wunderground v.1.15,2013-02-17 01:14:00,
2013-02-16 20:20:00,15.1,13.2,30.13,NE,38,1.0,2.0,92,0.00,,,0.00,Wunderground v.1.15,2013-02-17 01:20:00,
2013-02-16 20:26:00,14.9,12.7,30.13,NW,312,2.0,2.0,91,0.00,,,0.00,Wunderground v.1.15,2013-02-17 01:26:00,
2013-02-16 20:32:00,14.9,12.7,30.13,North,6,2.0,3.0,91,0.00,,,0.00,Wunderground v.1.15,2013-02-17 01:32:00,
2013-02-16 20:38:00,14.9,12.7,30.13,NE,50,1.0,3.0,91,0.00,,,0.00,Wunderground v.1.15,2013-02-17 01:38:00,
2013-02-16 20:44:00,14.8,12.4,30.14,NE,37,1.0,4.0,90,0.00,,,0.00,Wunderground v.1.15,2013-02-17 01:44:00,
2013-02-16 20:50:00,14.7,12.0,30.14,East,92,1.0,3.0,89,0.00,,,0.00,Wunderground v.1.15,2013-02-17 01:50:00,
2013-02-16 20:56:00,14.7,11.8,30.14,North,357,2.0,5.0,88,0.00,,,0.00,Wunderground v.1.15,2013-02-17 01:56:00,
2013-02-16 21:02:00,14.7,11.5,30.14,NE,52,3.0,6.0,87,0.00,,,0.00,Wunderground v.1.15,2013-02-17 02:02:00,
2013-02-16 21:08:00,14.7,11.5,30.15,NNW,329,2.0,6.0,87,0.00,,,0.00,Wunderground v.1.15,2013-02-17 02:08:00,
2013-02-16 21:14:00,14.7,11.0,30.14,NE,36,2.0,3.0,85,0.00,,,0.00,Wunderground v.1.15,2013-02-17 02:14:00,
2013-02-16 21:20:00,14.7,11.3,30.15,NNE,25,2.0,3.0,86,0.00,,,0.00,Wunderground v.1.15,2013-02-17 02:20:00,
2013-02-16 21:26:00,14.7,11.3,30.15,NW,306,1.0,3.0,86,0.00,,,0.00,Wunderground v.1.15,2013-02-17 02:26:00,
2013-02-16 21:32:00,14.7,10.7,30.15,NNE,23,2.0,2.0,84,0.00,,,0.00,Wunderground v.1.15,2013-02-17 02:32:00,
2013-02-16 21:38:00,14.7,10.7,30.15,WNW,297,3.0,4.0,84,0.00,,,0.00,Wunderground v.1.15,2013-02-17 02:38:00,
2013-02-16 21:44:00,14.7,11.0,30.15,NE,46,2.0,5.0,85,0.00,,,0.00,Wunderground v.1.15,2013-02-17 02:44:00,
2013-02-16 21:50:00,14.7,10.7,30.15,ENE,62,1.0,3.0,84,0.00,,,0.00,Wunderground v.1.15,2013-02-17 02:50:00,
2013-02-16 21:56:00,14.7,10.7,30.16,NE,50,2.0,6.0,84,0.00,,,0.00,Wunderground v.1.15,2013-02-17 02:56:00,
2013-02-16 22:02:00,14.8,10.8,30.16,NNE,27,2.0,2.0,84,0.00,,,0.00,Wunderground v.1.15,2013-02-17 03:02:00,
2013-02-16 22:08:00,14.7,10.2,30.16,ENE,63,2.0,4.0,82,0.00,,,0.00,Wunderground v.1.15,2013-02-17 03:08:00,
2013-02-16 22:14:00,14.7,10.2,30.16,ENE,65,2.0,4.0,82,0.00,,,0.00,Wunderground v.1.15,2013-02-17 03:14:00,
2013-02-16 22:20:00,14.7,9.6,30.17,NE,56,2.0,2.0,80,0.00,,,0.00,Wunderground v.1.15,2013-02-17 03:20:00,
2013-02-16 22:26:00,14.6,9.8,30.16,NNE,22,2.0,2.0,81,0.00,,,0.00,Wunderground v.1.15,2013-02-17 03:26:00,
2013-02-16 22:32:00,14.5,9.5,30.17,WSW,253,1.0,1.0,80,0.00,,,0.00,Wunderground v.1.15,2013-02-17 03:32:00,
2013-02-16 22:38:00,14.4,9.4,30.17,ENE,68,1.0,1.0,80,0.00,,,0.00,Wunderground v.1.15,2013-02-17 03:38:00,
2013-02-16 22:44:00,14.4,9.1,30.17,NE,52,1.0,1.0,79,0.00,,,0.00,Wunderground v.1.15,2013-02-17 03:44:00,
2013-02-16 22:50:00,14.3,9.3,30.17,NE,54,1.0,1.0,80,0.00,,,0.00,Wunderground v.1.15,2013-02-17 03:50:00,
2013-02-16 22:56:00,14.2,8.3,30.16,WSW,245,2.0,3.0,77,0.00,,,0.00,Wunderground v.1.15,2013-02-17 03:56:00,
2013-02-16 23:02:00,14.0,7.8,30.17,NNE,25,3.0,3.0,76,0.00,,,0.00,Wunderground v.1.15,2013-02-17 04:02:00,
2013-02-16 23:08:00,14.0,8.4,30.16,NE,53,1.0,3.0,78,0.00,,,0.00,Wunderground v.1.15,2013-02-17 04:08:00,
2013-02-16 23:14:00,13.9,8.3,30.16,SE,141,2.0,3.0,78,0.00,,,0.00,Wunderground v.1.15,2013-02-17 04:14:00,
2013-02-16 23:20:00,13.8,8.2,30.17,ENE,67,1.0,3.0,78,0.00,,,0.00,Wunderground v.1.15,2013-02-17 04:20:00,
2013-02-16 23:26:00,13.7,8.1,30.16,ENE,57,2.0,3.0,78,0.00,,,0.00,Wunderground v.1.15,2013-02-17 04:26:00,
2013-02-16 23:32:00,13.6,7.7,30.16,SSE,148,1.0,2.0,77,0.00,,,0.00,Wunderground v.1.15,2013-02-17 04:32:00,
2013-02-16 23:38:00,13.5,7.3,30.16,East,101,2.0,6.0,76,0.00,,,0.00,Wunderground v.1.15,2013-02-17 04:38:00,
2013-02-16 23:44:00,13.3,7.4,30.16,NNE,20,2.0,2.0,77,0.00,,,0.00,Wunderground v.1.15,2013-02-17 04:44:00,
2013-02-16 23:50:00,13.2,7.0,30.16,NNE,15,2.0,2.0,76,0.00,,,0.00,Wunderground v.1.15,2013-02-17 04:50:00,
2013-02-16 23:56:00,13.2,7.0,30.16,North,11,2.0,4.0,76,0.00,,,0.00,Wunderground v.1.15,2013-02-17 04:56:00,